Hourly Data Report for October 01, 2017

All times are specified in Local Standard Time (LST). Add 1 hour to adjust for Daylight Saving Time where and when it is observed.

FREDERICTON
NEW BRUNSWICK

45°52'08.000" N
66°32'14.000" W
20.70 m
8101505
71700
YFC

Download Data

Hourly Data (October 2017)
Hourly Data Report for October 1, 2017
Temp Definition
°C
Dew Point Temp Definition
°C
Rel Hum Definition
%
Wind Dir Definition
10's deg

Wind Spd Definition
km/h
Visibility Definition
km
Stn Press Definition
kPa
Hmdx Definition


Wind Chill Definition


Weather Definition


TIME
00:00 Legend Double Dagger 0.2 -0.8 93 21 11 16.1 102.23     LegendNANA
01:00 Legend Double Dagger 0.3 -0.3 96 21 9 16.1 102.23     LegendNANA
02:00 Legend Double Dagger -0.5 -0.9 97 21 9 16.1 102.23   -4 LegendNANA
03:00 Legend Double Dagger -1.0 -1.3 98 20 9 16.1 102.19   -4 LegendNANA
04:00 Legend Double Dagger -1.3 -1.4 99 21 8 16.1 102.16   -4 LegendNANA
05:00 Legend Double Dagger -1.4 -1.5 99 24 4 16.1 102.14   -3 LegendNANA
06:00 Legend Double Dagger -1.5 -1.6 99 22 9 16.1 102.13   -5 LegendNANA
07:00 Legend Double Dagger -1.8 -2.1 98 21 9 16.1 102.14   -5 LegendNANA
08:00 Legend Double Dagger 1.8 0.8 93 18 9 16.1 102.13     LegendNANA
09:00 Legend Double Dagger 6.6 3.1 78 20 9 16.1 102.10     LegendNANA
10:00 Legend Double Dagger 11.4 2.8 55 26 15 16.1 102.07     LegendNANA
11:00 Legend Double Dagger 13.6 2.9 48 20 9 16.1 101.97     LegendNANA
12:00 Legend Double Dagger 16.7 0.5 33 24 17 16.1 101.86     LegendNANA
13:00 Legend Double Dagger 17.7 -0.1 30 29 18 16.1 101.78     LegendNANA
14:00 Legend Double Dagger 18.8 0.3 29 26 15 16.1 101.68     LegendNANA
15:00 Legend Double Dagger 19.4 0.1 27 27 17 16.1 101.60     LegendNANA
16:00 Legend Double Dagger 19.7 0.5 27 25 11 16.1 101.56     LegendNANA
17:00 Legend Double Dagger 18.7 -0.2 28 26 13 16.1 101.55     LegendNANA
18:00 Legend Double Dagger 14.4 2.4 44 22 9 16.1 101.60     LegendNANA
19:00 Legend Double Dagger 11.0 4.2 63 24 9 16.1 101.68     LegendNANA
20:00 Legend Double Dagger 9.6 3.4 65 23 11 16.1 101.75     LegendNANA
21:00 Legend Double Dagger 7.6 3.3 74 21 8 16.1 101.80     LegendNANA
22:00 Legend Double Dagger 7.4 3.1 74 20 5 16.1 101.83     LegendNANA
23:00 Legend Double Dagger 5.0 2.1 82   0 16.1 101.85     LegendNANA

Notes on Data Quality.

Legend

  • E = Estimated
  • M = Missing
  • NA = Not Available
  • ‡ = Partner data that is not subject to review by the National Climate Archives
Date modified: